Wind_Speed
3 5 5 4 3 6 5 6 6 8 7 10 0 6 11 14 11 8 7 18 29 38 40 38 35 31 30 31 32 31 26 19 16 14 14 19 14 15 13 20 20 24 22 19
2 6 7 4 6 7 7 6 2 3 6 6 12 12 14 13 12 8 6 4 7 7 35 32 34 30 30 31 31 32 28 20 14 10 12 13 12 12 14 21 21 20 20 20
3 4 5 6 7 7 5 4 4 4 5 8 10 12 14 12 12 13 5 3 4 7 11 20 26 26 29 30 31 30 22 12 16 19 16 11 9 8 18 22 23 19 21 23
3 3 1 8 1 5 5 5 8 8 8 10 11 24 26 16 16 16 13 10 7 5 5 8 13 19 25 28 27 21 14 22 19 13 10 9 5 11 16 23 20 21 24 24
4 4 5 7 3 2 3 4 5 7 8 15 13 13 17 17 15 13 10 8 7 5 3 6 8 15 23 24 24 22 24 21 14 7 3 4 9 13 20 21 26 23 19 21
2 4 6 6 3 6 4 2 6 12 9 12 13 5 3 10 10 8 12 8 3 3 8 10 14 23 27 27 26 22 14 13 12 5 5 7 11 18 19 24 16 19 19 20
2 2 7 6 7 2 6 6 7 10 9 10 3 2 4 9 5 4 5 1 4 6 9 16 18 21 23 20 16 12 7 3 8 6 6 13 16 16 16 21 24 24 18 20
3 3 6 9 4 6 6 10 9 8 7 6 5 7 9 8 7 4 6 6 5 6 11 11 10 9 12 11 4 4 15 8 3 7 14 14 12 17 21 22 19 17 19 18
6 6 9 8 13 14 11 12 12 11 11 7 9 9 10 10 9 9 8 7 7 5 6 5 2 1 6 13 15 2 3 6 11 12 11 13 18 19 17 17 18 21 23 22
5 2 3 8 19 21 17 14 10 9 6 5 6 5 9 13 13 11 9 8 7 8 8 8 8 10 4 2 4 4 9 12 12 12 14 14 15 15 15 16 19 24 26 21
2 3 21 18 17 16 15 13 10 8 7 9 4 11 12 13 11 9 10 11 10 9 7 5 4 3 1 5 8 11 13 13 13 13 14 15 16 16 15 17 21 24 24 22
4 5 16 11 16 10 11 11 9 6 8 10 8 10 8 11 11 10 9 9 9 9 7 5 6 8 11 13 15 16 15 15 15 16 16 17 18 17 17 22 24 24 26 25
8 11 20 18 12 9 11 10 9 9 10 11 11 11 12 15 14 13 12 11 9 8 7 8 9 11 13 15 16 17 19 18 18 19 20 20 21 21 28 27 23 24 20 21
17 24 19 10 13 12 11 13 12 14 15 17 18 18 17 17 14 12 11 9 6 6 7 9 10 12 13 16 19 22 24 25 26 27 25 24 25 26 26 29 33 34 26 20
10 13 24 24 18 16 13 16 19 21 21 19 17 15 13 12 11 7 3 3 6 9 8 9 12 14 16 17 18 20 23 27 29 30 30 30 31 31 32 34 30 32 30 25
24 23 20 19 21 16 18 20 21 18 14 11 9 7 6 4 2 0 3 6 9 12 12 12 12 14 16 19 22 24 24 23 25 29 33 35 33 35 35 32 31 29 31 31
26 21 22 21 21 21 20 18 16 12 11 9 9 8 7 6 5 5 7 10 11 10 9 13 17 21 23 25 24 27 28 28 27 29 33 35 37 38 34 34 28 28 32 25
13 15 17 25 25 20 17 15 13 11 11 11 9 7 6 7 9 10 12 13 12 10 11 17 22 25 27 26 24 23 25 29 31 31 32 31 33 38 42 36 24 25 25 24
22 25 24 22 16 15 16 15 13 12 11 9 7 7 8 9 10 12 13 13 14 16 19 23 28 30 28 27 28 29 30 33 34 34 31 32 33 39 42 30 23 21 21 20
25 22 18 17 16 14 15 13 13 11 9 7 7 7 8 9 11 12 13 12 13 17 22 27 27 27 28 29 28 26 24 22 23 25 27 31 29 30 25 31 16 13 15 11
18 18 18 17 17 16 14 12 9 7 6 4 5 7 8 10 11 12 13 12 17 22 24 24 26 27 27 28 27 26 25 23 24 25 27 23 21 17 15 9 6 9 12 13
18 17 17 16 16 16 12 9 6 3 2 3 6 8 10 10 12 11 13 16 20 24 23 24 25 25 25 25 24 24 23 22 23 24 24 23 22 19 17 15 14 13 13 14
16 16 16 15 12 11 9 6 4 2 3 5 9 12 13 12 14 15 17 20 21 22 22 22 24 25 25 24 24 23 23 22 23 23 22 20 20 19 19 18 17 17 17 18
14 14 13 12 11 8 5 3 1 3 5 7 11 14 14 14 14 15 18 19 21 23 22 23 23 24 25 25 24 23 23 23 23 23 22 21 20 20 20 20 21 21 21 20
12 12 13 12 11 9 6 8 6 5 6 8 11 12 13 16 17 19 21 21 21 21 21 22 23 21 23 24 24 23 22 23 23 23 22 22 21 21 21 21 21 21 20 19
15 16 15 16 12 8 5 3 4 7 9 10 11 12 12 15 18 20 22 22 22 20 20 22 21 22 22 23 22 23 22 23 22 22 22 22 22 22 21 21 20 19 19 19
16 11 12 11 7 3 3 5 6 7 10 12 13 13 12 15 18 22 22 22 20 18 19 20 20 22 21 20 21 22 21 22 21 22 21 21 22 22 21 21 20 20 20 20
Wind_Direction
300 324 341 267 216 285 268 212 152 234 217 255 347 117 60 197 187 199 152 205 217 210 206 204 205 207 213 214 216 224 223 232 243 242 245 240 240 269 278 297 293 299 300 293
308 326 11 347 311 298 302 308 316 270 251 220 156 109 83 70 62 102 75 18 18 254 211 217 211 211 215 220 219 219 220 227 232 224 205 235 246 274 305 290 294 299 294 284
245 351 3 344 237 235 238 273 255 293 310 59 53 58 46 44 54 52 29 29 9 51 214 226 218 218 222 221 216 214 215 220 201 209 229 233 257 306 300 305 295 287 284 290
189 36 49 241 235 111 122 48 63 71 69 81 68 64 56 69 80 70 64 40 16 345 324 233 223 222 219 211 205 200 200 194 198 214 217 227 337 314 299 291 284 288 289 292
137 184 286 321 15 82 116 51 41 70 41 39 33 73 48 60 58 45 21 12 5 334 290 225 212 199 195 182 191 198 184 186 188 185 102 15 310 307 289 284 283 292 294 289
129 145 203 234 148 48 45 73 41 57 45 31 38 55 279 20 8 3 20 4 354 234 200 191 168 179 182 174 176 164 150 145 153 125 319 322 301 283 281 292 301 294 293 291
135 177 288 252 141 112 95 224 87 62 63 49 64 129 6 341 47 60 62 65 192 182 160 136 147 172 160 150 136 129 131 19 355 336 334 281 284 300 299 296 294 292 277 284
101 98 280 177 101 132 180 91 73 55 38 40 27 10 20 55 107 114 132 128 130 148 134 134 145 176 167 168 150 324 327 335 335 271 286 296 296 289 290 299 306 305 281 291
162 210 226 138 119 126 113 93 68 62 47 33 57 44 34 105 120 120 125 127 123 122 128 136 187 276 344 313 316 313 210 258 293 303 307 298 293 298 307 312 307 308 314 283
78 279 175 172 100 99 108 96 84 71 68 65 72 60 112 131 130 138 131 114 80 44 22 14 357 334 350 123 195 274 309 309 307 306 302 297 300 305 311 304 298 302 312 294
213 121 85 71 84 106 108 109 95 93 79 83 105 111 135 133 127 101 77 58 40 29 31 42 63 95 69 347 334 315 309 308 305 300 299 303 305 304 294 291 292 299 301 302
205 98 107 101 106 122 119 109 106 118 95 88 87 95 91 91 91 90 81 72 73 75 70 59 24 9 348 329 319 312 308 303 299 299 300 300 301 302 300 293 293 293 288 285
134 112 128 134 133 136 126 118 109 100 95 100 95 98 98 97 89 85 78 67 61 48 26 3 341 330 330 330 325 318 312 306 297 298 300 300 294 299 305 304 311 317 312 310
124 130 119 146 126 120 118 114 110 102 98 94 93 87 83 79 71 62 54 41 25 1 347 343 335 329 319 312 310 307 306 304 303 303 301 295 293 291 300 299 304 311 312 309
126 164 142 133 124 116 116 116 108 102 100 96 90 87 88 85 77 71 55 4 333 337 338 321 315 314 312 310 306 301 296 294 295 295 292 291 289 285 292 294 298 302 306 306
130 129 131 124 118 124 121 115 113 118 116 112 113 113 107 121 119 49 341 345 353 357 346 338 332 326 320 315 313 310 305 298 295 295 293 290 287 290 300 294 300 300 301 302
132 122 128 124 129 126 130 132 131 129 127 125 112 101 94 84 64 29 3 351 350 349 344 338 333 326 322 321 319 315 313 315 313 301 294 296 295 289 293 291 290 296 300 303
156 143 144 146 145 141 137 136 132 130 121 110 102 88 62 30 17 8 3 3 357 343 326 316 323 327 329 325 318 315 312 308 305 305 311 306 302 301 293 281 279 289 298 300
140 140 144 148 149 142 136 132 128 119 109 98 77 52 35 25 17 5 360 348 336 330 333 329 321 323 325 325 322 318 315 316 316 311 307 311 313 296 295 257 273 281 297 303
139 143 147 142 141 143 141 135 126 121 105 80 55 42 27 9 358 350 349 339 324 326 324 323 327 330 331 332 335 332 329 333 341 338 328 309 317 318 299 292 267 286 287 298
145 145 141 142 142 141 140 135 135 120 97 59 26 13 6 356 342 341 331 330 326 330 331 328 333 337 340 339 339 337 335 330 325 323 327 338 354 360 6 12 336 297 286 292
141 142 145 147 146 142 141 140 132 105 56 3 349 353 355 351 344 345 325 327 326 328 332 332 334 337 338 338 339 339 341 336 333 333 333 335 335 339 338 332 326 318 308 299
157 154 149 148 148 146 144 140 120 55 2 345 342 348 351 348 337 333 332 331 327 328 333 331 331 333 334 336 337 335 338 336 336 340 343 340 333 329 327 322 316 310 307 304
159 158 155 151 151 153 138 109 47 354 2 341 332 334 333 333 333 330 327 325 324 327 331 330 333 332 333 336 339 337 338 335 335 334 337 336 335 333 327 322 320 317 314 311
165 154 147 143 154 170 176 156 199 269 309 313 320 326 322 324 328 329 323 326 323 322 325 327 329 332 332 335 337 337 339 335 338 336 336 337 336 332 330 328 326 325 322 320
156 157 161 175 190 199 212 214 275 306 308 311 318 328 312 312 316 318 320 322 324 321 322 325 329 332 332 332 335 334 334 337 339 337 338 341 340 337 334 333 330 329 329 326
160 169 182 183 184 200 270 303 316 319 311 318 322 329 308 303 307 311 315 320 323 319 324 327 327 331 334 328 330 333 336 340 340 337 342 342 341 340 338 336 335 334 332 330
Height
1483 1482 1481 1478 1480 1480 1482 1486 1502 1494 1490 1480 1475 1475 1472 1473 1476 1478 1481 1484 1484 1482 1484 1487 1491 1496 1500 1504 1505 1508 1511 1515 1518 1522 1524 1526 1527 1526 1524 1523 1522 1521 1518 1515
1487 1481 1483 1486 1481 1479 1478 1476 1476 1478 1482 1471 1470 1470 1473 1476 1477 1479 1481 1481 1482 1482 1483 1486 1488 1492 1496 1499 1501 1503 1506 1510 1514 1518 1520 1520 1520 1518 1520 1519 1517 1515 1513 1510
1500 1495 1492 1507 1483 1478 1475 1473 1475 1485 1479 1473 1474 1474 1476 1476 1477 1479 1480 1481 1482 1484 1485 1486 1488 1490 1491 1494 1497 1500 1504 1507 1509 1511 1512 1512 1515 1516 1517 1516 1512 1509 1507 1504
1511 1508 1522 1482 1467 1467 1472 1476 1475 1476 1478 1477 1478 1479 1477 1478 1478 1480 1480 1481 1482 1484 1486 1486 1486 1487 1489 1492 1496 1499 1501 1501 1503 1505 1506 1505 1507 1511 1511 1510 1507 1505 1503 1500
1512 1515 1494 1476 1471 1470 1472 1484 1477 1478 1478 1478 1478 1478 1481 1482 1481 1482 1482 1483 1484 1484 1484 1485 1486 1486 1488 1491 1492 1493 1494 1495 1495 1497 1499 1503 1504 1506 1504 1501 1500 1498 1497 1495
1508 1513 1517 1484 1469 1467 1467 1497 1479 1478 1479 1478 1478 1493 1487 1484 1483 1483 1481 1482 1481 1481 1480 1481 1483 1482 1483 1484 1485 1488 1491 1490 1488 1493 1497 1499 1499 1498 1498 1497 1495 1494 1492 1491
1514 1516 1497 1471 1466 1467 1492 1497 1478 1479 1480 1480 1483 1485 1485 1484 1483 1481 1481 1481 1481 1480 1479 1481 1482 1482 1481 1483 1484 1487 1489 1493 1493 1495 1495 1494 1493 1494 1493 1491 1489 1487 1486 1485
1503 1508 1502 1465 1467 1477 1478 1476 1478 1479 1480 1481 1482 1483 1483 1481 1480 1480 1480 1481 1481 1480 1481 1483 1485 1486 1485 1486 1489 1490 1490 1490 1491 1491 1491 1490 1490 1490 1489 1487 1483 1481 1479 1478
1480 1484 1464 1464 1466 1468 1471 1474 1477 1478 1479 1479 1480 1481 1481 1479 1479 1479 1480 1481 1481 1482 1483 1484 1485 1487 1489 1489 1489 1489 1489 1489 1489 1488 1487 1487 1486 1485 1483 1481 1479 1476 1475 1473
1468 1462 1462 1463 1466 1467 1469 1473 1474 1476 1477 1478 1479 1479 1479 1479 1478 1478 1480 1481 1483 1485 1487 1488 1488 1488 1487 1487 1487 1488 1489 1488 1487 1486 1485 1484 1482 1480 1478 1476 1475 1472 1469 1466
1464 1462 1464 1468 1468 1469 1470 1472 1472 1475 1476 1477 1477 1478 1478 1479 1480 1482 1484 1484 1485 1485 1486 1487 1488 1488 1488 1489 1489 1489 1488 1486 1485 1483 1481 1479 1477 1475 1473 1472 1469 1466 1464 1461
1472 1460 1460 1470 1470 1469 1469 1472 1474 1475 1477 1478 1479 1480 1482 1482 1484 1485 1484 1484 1485 1486 1488 1489 1489 1489 1488 1488 1486 1485 1484 1482 1480 1478 1476 1474 1471 1469 1468 1466 1463 1460 1457 1454
1456 1457 1460 1466 1468 1469 1470 1473 1475 1476 1478 1479 1480 1481 1482 1483 1485 1486 1487 1487 1488 1489 1490 1490 1489 1488 1487 1485 1483 1481 1480 1478 1476 1473 1471 1469 1467 1464 1460 1457 1455 1453 1450 1446
1455 1457 1464 1466 1468 1471 1472 1474 1476 1477 1479 1482 1484 1485 1486 1487 1489 1489 1490 1491 1491 1491 1490 1489 1488 1487 1485 1483 1480 1477 1475 1473 1470 1468 1465 1462 1460 1458 1455 1451 1445 1442 1442 1440
1454 1455 1458 1464 1469 1472 1474 1476 1478 1481 1484 1486 1487 1488 1490 1491 1491 1492 1492 1491 1491 1490 1489 1488 1486 1484 1481 1478 1476 1473 1470 1467 1464 1461 1459 1456 1452 1449 1447 1443 1439 1435 1432 1430
1455 1459 1463 1466 1470 1474 1476 1479 1480 1483 1486 1487 1488 1489 1490 1490 1491 1491 1491 1490 1489 1488 1486 1484 1482 1480 1477 1473 1470 1467 1463 1460 1457 1453 1450 1446 1443 1440 1438 1435 1432 1428 1425 1422
1454 1462 1465 1468 1472 1475 1477 1480 1482 1484 1485 1486 1487 1488 1489 1489 1490 1490 1489 1488 1487 1485 1482 1480 1478 1475 1472 1469 1465 1460 1456 1451 1449 1445 1442 1438 1435 1431 1429 1426 1424 1421 1418 1415
1456 1460 1464 1468 1471 1474 1477 1480 1482 1484 1485 1486 1487 1488 1488 1488 1488 1488 1487 1485 1483 1481 1479 1477 1474 1470 1467 1463 1458 1454 1449 1445 1441 1438 1434 1429 1426 1423 1417 1414 1414 1412 1410 1407
1457 1461 1465 1469 1472 1475 1478 1480 1482 1484 1485 1487 1487 1487 1487 1487 1487 1486 1484 1481 1479 1477 1475 1472 1468 1465 1460 1456 1452 1447 1442 1437 1433 1428 1425 1421 1416 1412 1406 1402 1403 1404 1402 1400
1461 1465 1468 1471 1474 1476 1478 1481 1483 1484 1485 1487 1487 1487 1486 1486 1485 1483 1481 1479 1477 1476 1472 1467 1462 1458 1454 1449 1444 1439 1436 1432 1428 1423 1418 1414 1410 1405 1401 1399 1396 1396 1396 1395
1464 1467 1469 1472 1475 1478 1480 1481 1483 1484 1485 1486 1486 1486 1484 1483 1482 1480 1478 1476 1473 1470 1467 1462 1458 1453 1449 1444 1440 1436 1432 1427 1424 1419 1415 1411 1405 1401 1397 1394 1392 1391 1390 1389
1466 1469 1471 1474 1476 1478 1480 1481 1482 1483 1484 1484 1484 1483 1482 1480 1479 1478 1475 1473 1469 1465 1461 1457 1453 1449 1445 1441 1437 1433 1428 1424 1419 1415 1411 1407 1404 1400 1397 1394 1391 1388 1385 1383
1468 1470 1472 1475 1477 1478 1480 1480 1481 1482 1482 1481 1480 1479 1478 1476 1474 1473 1471 1468 1464 1461 1457 1453 1449 1445 1442 1438 1433 1429 1425 1420 1416 1413 1409 1405 1401 1398 1395 1391 1388 1385 1382 1379
1468 1470 1473 1475 1476 1478 1478 1479 1480 1480 1479 1478 1477 1475 1474 1473 1472 1470 1467 1464 1461 1458 1454 1450 1445 1442 1438 1434 1430 1426 1422 1417 1414 1410 1406 1402 1398 1395 1391 1387 1384 1380 1377 1374
1468 1470 1473 1474 1476 1476 1478 1478 1478 1478 1477 1476 1475 1473 1470 1468 1467 1465 1463 1460 1457 1454 1450 1446 1442 1438 1435 1431 1427 1423 1419 1415 1411 1406 1402 1399 1395 1391 1387 1383 1380 1376 1373 1370
1468 1470 1472 1473 1474 1475 1475 1475 1475 1474 1473 1473 1472 1470 1467 1465 1463 1461 1459 1456 1453 1450 1447 1443 1439 1435 1432 1428 1424 1420 1416 1412 1408 1403 1400 1396 1392 1388 1384 1380 1376 1372 1369 1366
1468 1470 1470 1471 1472 1473 1472 1472 1472 1471 1469 1468 1467 1466 1464 1462 1460 1457 1454 1451 1449 1446 1443 1439 1435 1432 1428 1425 1421 1417 1413 1409 1405 1401 1398 1394 1389 1385 1381 1376 1373 1369 1366 1362